Location: Donja Pastu�a
(45.3125°N, 16.3586°E)
Time: 21:58:16
(UTC+00:00)

Daily predictions for brighter satellites

Satellite Brightness Start Highest point End
(mag) Time Altitude Azimuth Time Altitude Azimuth Time Altitude Azimuth
Cosmos 1782 2.8 16:50:48 10° N 16:54:50 81° E 16:58:50 10° S
STARLINK-1015 4.5 16:52:40 10° S 16:55:12 21° SE 16:57:44 10° E
ADEOS Rocket 4.1 16:49:24 10° NNE 16:56:25 36° E 17:03:22 10° SSE
STARLINK-81 4.3 16:55:11 10° SSW 16:58:55 38° SE 17:02:39 10° ENE
Cosmos 1802 Rocket 4.0 16:53:28 10° S 16:59:41 69° E 17:06:01 10° NNE
Cosmos 1354 Rocket 4.0 16:55:08 10° NNW 17:00:29 82° ENE 17:05:46 10° SSE
STARLINK-54 4.1 16:56:55 10° SSW 17:00:44 42° SE 17:04:33 10° ENE
Cosmos 1743 Rocket 4.4 16:56:39 10° SSW 17:00:58 55° WNW 17:05:15 10° N
SL-4 R/B 2.4 16:56:23 10° WNW 17:01:13 87° SSW 17:05:47 10° ESE
Meteor 2-6 Rocket 4.2 16:56:13 10° N 17:01:47 62° ENE 17:07:10 10° SSE
Tsikada Rocket 4.3 16:55:41 10° N 17:01:48 45° ENE 17:07:54 10° SSE
STARLINK-77 4.2 16:58:26 10° SSW 17:02:12 40° SE 17:05:59 10° ENE
STARLINK-25 4.1 17:00:04 10° SSW 17:03:51 41° SE 17:07:39 10° ENE
USA 234 4.3 16:59:28 10° ENE 17:05:04 32° N 17:10:42 10° WNW
Cosmos 1862 3.7 17:01:23 10° SSE 17:05:09 41° E 17:08:55 10° NNE
STARLINK-71 4.0 17:01:49 10° SSW 17:05:40 47° SE 17:09:33 10° ENE
SL-27 R/B 3.7 17:03:06 10° N 17:05:44 21° ENE 17:08:19 10° ESE
USA 229 DEB 4.0 17:00:22 10° S 17:06:29 45° ESE 17:12:53 10° NE
USA 229 4.0 17:00:29 10° S 17:06:36 45° ESE 17:12:59 10° NE
STARLINK-79 4.0 17:03:19 10° SSW 17:07:08 44° SE 17:10:59 10° ENE
Cosmos 2297 3.7 17:02:48 10° SSW 17:08:27 84° ESE 17:14:08 10° NNE
H-2A R/B 3.5 17:04:48 10° ESE 17:08:29 19° ENE 17:12:11 10° NNE
Cosmos 1340 4.4 17:06:46 10° ESE 17:08:39 13° E 17:10:33 10° ENE
STARLINK-78 4.0 17:04:58 10° SSW 17:08:48 45° SE 17:12:37 10° ENE
STARLINK-57 3.9 17:06:37 10° SW 17:10:31 49° SE 17:14:18 11° ENE
STARLINK-64 3.3 17:08:04 10° SW 17:11:38 67° SE 17:15:06 11° ENE
STARLINK-49 3.9 17:08:12 10° SW 17:12:05 48° SE 17:15:47 11° ENE
Ariane Rocket 3.9 17:08:56 10° ESE 17:13:11 27° ENE 17:17:28 10° N
STARLINK-27 3.9 17:09:52 10° SW 17:13:45 50° SE 17:17:24 12° ENE
NOSS 3-1 (A) 4.1 17:09:20 10° S 17:13:57 29° ESE 17:19:04 10° NE
Lacrosse 4 Rocket 1.6 17:10:57 10° SSW 17:15:08 79° WNW 17:19:29 10° NNE
STARLINK-74 3.8 17:11:28 10° SW 17:15:22 51° SE 17:18:57 12° ENE
Cosmos 968 Rocket 4.4 17:11:15 10° NNW 17:16:19 55° WSW 17:21:24 10° S
STARLINK-39 3.8 17:13:07 10° SW 17:17:02 53° SE 17:20:34 12° ENE
Cosmos 921 Rocket 3.7 17:13:14 10° SSE 17:17:19 35° E 17:21:26 10° NE
STARLINK-31 3.8 17:14:46 10° SW 17:18:41 55° SE 17:22:10 13° ENE
CZ-2D R/B 3.3 17:16:31 10° SSE 17:20:20 58° ENE 17:24:11 10° N
STARLINK-69 3.6 17:16:32 10° SW 17:20:30 61° SE 17:23:58 13° ENE
Cosmos 2369 Rocket 2.8 17:16:36 10° SSE 17:21:36 34° ESE 17:26:38 10° NE
Cosmos 2016 Rocket 3.9 17:15:32 10° S 17:21:37 84° E 17:27:46 10° N
STARLINK-21 3.7 17:18:03 10° SW 17:22:00 58° SE 17:25:22 14° ENE
Cosmos 1812 3.0 17:19:34 10° N 17:23:18 43° ENE 17:26:59 10° SSE
STARLINK-45 3.6 17:19:52 10° SW 17:23:51 66° SE 17:27:12 14° ENE
STARLINK-70 3.6 17:21:26 10° SW 17:25:25 65° SE 17:28:41 15° ENE
YAOGAN 1 2.5 17:21:22 10° SSE 17:25:41 84° ENE 17:30:02 10° NNW
Cosmos 1346 Rocket 4.2 17:23:03 10° SE 17:25:46 18° E 17:28:31 10° NE
STARLINK-76 3.6 17:22:58 10° SW 17:26:57 64° SE 17:30:08 15° ENE
STARLINK-23 3.6 17:24:37 10° SW 17:28:36 66° SE 17:31:42 16° ENE
Cosmos 2082 Rocket 4.1 17:25:04 10° NW 17:30:04 34° WSW 17:35:05 10° SSW
STARLINK-32 3.5 17:26:17 10° SW 17:30:16 68° SE 17:33:20 16° ENE
STARLINK-40 3.5 17:27:54 10° SW 17:31:54 70° SE 17:34:54 17° ENE
STARLINK-33 3.3 17:28:45 10° WSW 17:32:00 65° NNW 17:34:26 17° NE
SKYMED 2 4.3 17:27:55 10° N 17:32:11 56° WNW 17:36:25 10° SSW
STARLINK-44 3.5 17:29:33 10° SW 17:33:33 72° SE 17:36:29 18° ENE
STARLINK-66 3.3 17:30:35 10° WSW 17:33:49 62° NNW 17:36:12 17° NE
Cosmos 1633 Rocket 3.0 17:30:04 10° S 17:34:20 58° E 17:38:36 10° NNE
STARLINK-55 3.4 17:31:39 10° WSW 17:34:53 60° NNW 17:37:12 17° NE
STARLINK-37 3.5 17:31:18 10° SW 17:35:19 77° SE 17:38:13 18° ENE
FALCON 9 DEB 4.2 17:33:25 10° NW 17:36:32 31° NNE 17:38:06 21° ENE
STARLINK-28 3.5 17:33:22 10° WSW 17:36:36 54° NNW 17:38:52 18° NE
STARLINK-36 3.5 17:32:51 10° SW 17:36:52 76° SE 17:39:40 19° ENE
Cosmos 1666 Rocket 3.5 17:33:43 10° S 17:38:10 79° E 17:42:40 10° N
Cosmos 2233 Rocket 4.0 17:32:32 10° S 17:38:32 59° E 17:44:36 10° NNE
STARLINK-68 3.5 17:34:40 10° SW 17:38:42 84° SE 17:41:29 19° ENE
STARLINK-26 4.4 17:35:34 10° W 17:38:47 35° NNW 17:41:13 15° NE
Cosmos 1933 Rocket 4.5 17:35:17 10° SE 17:38:58 27° E 17:42:40 10° NNE
STARLINK-63 3.5 17:36:14 10° SW 17:40:16 83° SE 17:42:59 20° ENE
STARLINK-29 4.3 17:38:01 10° NW 17:41:05 29° NNE 17:42:25 22° ENE
STARLINK-35 3.5 17:37:47 10° SW 17:41:49 82° SE 17:44:26 21° ENE
CZ-4 R/B 2.5 17:38:29 10° S 17:42:34 49° W 17:46:39 10° NNW
STARLINK-51 3.5 17:39:29 10° SW 17:43:29 84° SSE 17:46:03 22° ENE
STARLINK-75 3.5 17:40:55 10° WSW 17:44:20 59° NNW 17:46:26 21° NE
STARLINK-30 3.5 17:41:06 10° SW 17:45:08 86° SSE 17:47:38 22° ENE
Cosmos 1939 Rocket 3.2 17:41:40 10° S 17:45:46 70° WSW 17:49:55 10° NNW
Meteor 1-27 Rocket 3.6 17:40:27 10° N 17:46:01 76° ENE 17:51:37 10° SSE
Lacrosse 5 rocket 3.5 17:42:40 10° WNW 17:46:10 22° NNW 17:49:40 10° NE
STARLINK-72 3.5 17:42:45 10° SW 17:46:47 89° SE 17:49:13 23° ENE
STARLINK-1023 2.8 17:44:24 10° SW 17:47:25 66° SE 17:48:29 35° ENE
STARLINK-50 3.5 17:44:25 10° WSW 17:48:26 89° NW 17:50:48 24° ENE
STARLINK-22 3.3 17:45:44 10° WSW 17:49:08 66° NNW 17:50:58 25° NE
STARLINK-59 3.5 17:46:09 10° WSW 17:50:11 85° NNW 17:52:31 24° NE
STARLINK 1040 2.4 17:47:42 10° SW 17:50:30 85° SSE 17:51:18 43° ENE
STARLINK-41 3.5 17:47:12 10° WSW 17:50:35 61° NNW 17:52:23 25° NE
STARLINK-42 3.6 17:47:59 10° WSW 17:51:10 52° NNW 17:52:46 25° NE
STARLINK-52 4.2 17:48:13 10° NW 17:51:16 30° NNE 17:52:08 26° NE
STARLINK-56 3.5 17:47:42 10° WSW 17:51:44 85° NNW 17:53:59 25° NE
STARLINK-73 3.5 17:49:23 10° WSW 17:53:24 83° NNW 17:55:35 26° NE
Aureole 2 Rocket 1.8 17:51:00 10° S 17:53:24 51° ESE 17:53:24 51° ESE
STARLINK-38 3.5 17:51:03 10° WSW 17:55:04 81° NNW 17:57:11 27° NE
CSL-04 Rocket 4.2 17:49:38 10° S 17:55:08 64° WSW 18:00:37 10° NNW
STARLINK-1014 3.1 17:52:12 10° SW 17:55:35 64° SE 17:56:35 40° E
STARLINK-1007 2.7 17:52:40 10° SW 17:55:46 80° SSE 17:56:36 45° ENE
STARLINK-65 3.5 17:52:40 10° WSW 17:56:42 80° NNW 17:58:45 28° NE
STARLINK-53 3.6 17:54:26 10° WSW 17:58:27 75° NNW 18:00:27 28° NE
ARGOS 3.6 17:54:51 16° SE 17:58:42 40° ENE 18:03:45 10° N
STARLINK-61 4.1 17:54:58 10° WSW 17:58:47 50° NNW 18:00:49 24° NE
Resurs 01 Rocket 3.8 18:05:26 12° NNE 18:05:26 12° NNE 18:05:58 10° NNE
STARLINK-1037 4.3 18:00:43 10° SSW 18:04:30 35° SE 18:04:51 34° SE
STARLINK-1010 2.8 18:02:17 10° WSW 18:05:24 85° NNW 18:05:52 61° NE
Cosmos 2242 Rocket 3.7 18:00:58 10° N 18:05:25 52° ENE 18:08:33 18° SSE
IRS-1A Rocket 4.1 18:02:17 10° SSE 18:07:47 74° ENE 18:13:17 10° NNW
NOSS 3-1 (C) 3.4 18:02:43 10° SW 18:08:14 79° NW 18:14:40 10° NE
STARLINK-60 2.9 18:06:00 10° NW 18:09:17 67° NNE 18:09:30 65° ENE
STARLINK-1059 4.1 18:05:35 10° SSW 18:09:25 38° SE 18:09:36 38° SE
USA 267 4.0 18:10:35 28° ESE 18:11:58 31° SE 18:17:36 10° S
STARLINK-1008 2.9 18:10:19 10° WSW 18:13:29 73° NNW 18:13:42 69° N
STARLINK-58 3.9 18:10:51 10° WSW 18:14:19 49° NNW 18:15:14 38° NNE
STARLINK-1057 4.0 18:10:29 10° SSW 18:14:23 41° SE 18:14:24 41° SE
STARLINK-1016 2.9 18:11:22 10° WSW 18:14:31 72° NNW 18:14:40 70° N
Cosmos 1777 Rocket 4.3 18:10:17 10° NNW 18:15:32 67° WSW 18:20:45 10° S
STARLINK-1025 3.0 18:12:31 10° WSW 18:15:40 71° NNW 18:15:49 69° N
STARLINK-62 4.0 18:12:35 10° W 18:16:02 47° NNW 18:16:52 38° NNE
STARLINK-1017 3.0 18:13:38 10° WSW 18:16:47 69° NNW 18:16:52 69° NNW
STARLINK-34 4.0 18:14:11 10° W 18:17:38 46° NNW 18:18:24 38° NNE
SJ-11-01 4.2 18:12:59 10° SSE 18:17:40 88° WSW 18:22:23 10° NNW
OE (NEXTSAT) 4.2 18:14:24 10° W 18:17:54 90° NNW 18:18:03 82° ENE
FALCON 9 R/B 4.5 17:57:13 10° W 18:18:03 39° SW 18:23:56 14° SSE
Cosmos 1470 Rocket 3.5 18:13:50 10° S 18:18:10 86° W 18:22:34 10° N
Cosmos 1898 Rocket 4.4 18:13:41 10° N 18:17:47 29° NE 18:17:47 29° NE
STARLINK-1034 4.0 18:15:24 10° SSW 18:19:11 45° SSE 18:19:11 45° SSE
STARLINK-1048 3.1 18:17:01 10° WSW 18:20:08 65° NW 18:20:08 65° NW
STARLINK-1029 3.0 18:17:25 10° WSW 18:20:19 72° WSW 18:20:19 72° WSW
STARLINK-1028 3.2 18:18:04 10° WSW 18:21:10 63° NW 18:21:10 63° NW
STARLINK-1049 3.2 18:18:09 10° WSW 18:21:14 63° NW 18:21:14 63° NW
Cosmos 2227 Rocket 4.3 18:20:33 10° NNE 18:21:19 10° NNE 18:21:19 10° NNE
STARLINK-1031 3.7 18:18:10 10° SW 18:21:48 51° SSE 18:21:48 51° SSE
STARLINK-1021 3.3 18:19:16 10° WSW 18:22:20 62° NW 18:22:20 62° NW
STARLINK-1051 3.3 18:19:20 10° WSW 18:22:23 62° NW 18:22:23 62° NW
STARLINK-1019 3.3 18:20:29 10° WSW 18:23:30 60° NW 18:23:30 60° NW
STARLINK-1068 3.9 18:20:18 10° SW 18:23:58 48° SSE 18:23:58 48° SSE
STARLINK-1012 3.4 18:21:44 10° WSW 18:24:41 58° NW 18:24:41 58° NW
Cosmos 1862 Rocket 4.1 18:20:45 10° NNW 18:25:00 56° W 18:29:15 10° S
Meteor 1-25 Rocket 4.2 18:19:45 10° S 18:25:22 60° E 18:30:56 10° NNE
Cosmos 44 2.9 18:22:16 10° NNW 18:26:41 81° NE 18:27:30 59° SE
STARLINK-1026 3.6 18:24:11 10° WSW 18:27:03 54° NW 18:27:03 54° NW
STARLINK-1013 3.6 18:25:27 10° WSW 18:28:16 52° WNW 18:28:16 52° WNW
STARLINK-24 4.1 18:25:42 10° W 18:29:37 50° NNW 18:30:20 44° NNE
STARLINK-1009 3.7 18:26:41 10° WSW 18:29:27 50° WNW 18:29:27 50° WNW
Cosmos 1943 Rocket 2.7 18:25:32 10° SW 18:31:02 57° WNW 18:36:31 10° NNE
STARLINK-1015 3.8 18:27:58 10° WSW 18:30:41 49° WNW 18:30:41 49° WNW
SJ-6B 3.6 18:34:18 38° N 18:34:18 38° N 18:36:44 10° N
STARLINK-1060 4.0 18:30:10 10° SW 18:33:32 50° S 18:33:32 50° S
STARLINK-81 4.2 18:34:05 10° W 18:37:59 48° NNW 18:38:19 47° N
STARLINK-1030 4.1 18:35:06 10° SW 18:38:19 49° SSW 18:38:19 49° SSW
STARLINK-54 4.3 18:36:00 10° W 18:39:52 45° NNW 18:40:09 44° N
STARLINK-1047 4.1 18:36:00 10° SW 18:39:18 52° SSW 18:39:18 52° SSW
STARLINK-1035 3.9 18:36:10 10° SW 18:39:49 61° SSW 18:39:49 61° SSW
NOSS 2-3 (E) 3.6 18:36:12 10° SW 18:40:31 87° NW 18:41:17 62° NNE
STARLINK-77 4.2 18:37:25 10° W 18:41:19 46° NNW 18:41:30 46° NNW
Cosmos 1703 Rocket 3.7 18:36:52 10° N 18:40:43 63° NNE 18:40:43 63° NNE
Cosmos 1464 Rocket 3.9 18:35:13 10° S 18:41:31 72° E 18:47:54 10° NNE
ADEOS Rocket 4.3 18:34:35 10° N 18:42:04 56° WNW 18:49:33 10° SW
STARLINK-25 4.3 18:39:06 10° W 18:42:59 45° NNW 18:43:05 45° NNW
BREEZE-M DEB (TANK) 3.7 18:40:39 10° WNW 18:43:48 72° SSW 18:45:03 51° SE
Cosmos 1340 3.8 18:40:16 10° SSW 18:43:51 43° WNW 18:47:29 10° N
STARLINK-1020 4.3 18:40:03 10° SW 18:43:06 46° SSW 18:43:06 46° SSW
Meteor 1-22 4.5 18:39:12 10° S 18:44:33 89° W 18:49:57 10° N
STARLINK-71 4.4 18:41:01 10° W 18:44:52 42° NNW 18:44:55 42° NNW
Cosmos 2285 Rocket 4.2 18:38:49 10° NNW 18:45:11 73° WSW 18:50:08 18° S
STARLINK-79 4.4 18:42:26 10° W 18:46:16 44° NNW 18:46:16 44° NNW
USA 234 3.8 18:45:39 38° NE 18:47:10 44° NNE 18:53:16 10° NW
H-2A R/B 2.3 18:42:36 13° S 18:47:17 71° WSW 18:52:45 10° NNW
STARLINK-78 4.5 18:44:07 10° W 18:47:52 43° NNW 18:47:52 43° NNW
Nadezhda 4 Rocket 4.0 18:42:07 10° N 18:48:18 57° ENE 18:48:26 57° E
STARLINK-1052 4.5 18:45:01 10° SW 18:47:54 43° SW 18:47:54 43° SW
Timation 2 Rocket 4.3 18:43:33 10° NNW 18:50:14 50° NE 18:50:36 50° ENE
STARLINK-1027 4.2 18:46:44 10° SW 18:50:06 55° SW 18:50:06 55° SW
Ariane Rocket 4.2 18:47:08 10° S 18:51:57 42° W 18:56:48 10° NNW
Lacrosse 4 Rocket 4.3 18:52:31 10° WNW 18:54:36 13° NW 18:56:43 10° N
NOSS 2-3 (D) 3.8 18:51:05 10° SW 18:55:22 70° NW 18:55:25 70° NW
Okean 1-7 4.1 18:51:30 10° N 18:54:07 36° N 18:54:07 36° N
CZ-2C R/B 3.5 18:54:04 21° S 18:58:06 71° WSW 19:03:52 10° NNW
Cosmos 2034 Rocket 4.0 18:53:15 10° S 19:00:12 62° NE 19:05:30 10° NNE
BREEZE-M DEB (TANK) 4.1 18:33:57 10° W 18:59:41 68° N 19:01:29 49° NE
SJ 16-02 3.1 18:56:53 10° NNW 18:58:44 24° N 18:58:44 24° N
Cosmos 1346 Rocket 4.3 18:58:09 10° SW 19:01:51 36° WNW 19:05:34 10° N
NOSS 3-1 (A) 3.9 18:58:52 10° WSW 19:04:20 54° NW 19:07:45 26° NNE
Cosmos 2369 Rocket 3.4 19:00:11 10° SW 19:05:30 41° NW 19:10:54 10° NNE
Cosmos 1656 Rocket 3.7 19:04:47 10° SSW 19:10:16 73° WNW 19:10:50 67° NNW
CENTAUR R/B 4.2 19:19:55 10° NNW 19:26:24 28° NNE 19:26:39 28° NNE
Lacrosse 5 rocket 3.9 19:23:21 10° NW 19:25:18 17° NNW 19:25:18 17° NNW
SPOT 3 Rocket 4.3 19:28:41 48° W 19:28:41 48° W 19:33:34 10° NNW
ATLAS 3B R/B 4.3 19:28:57 10° NNW 19:33:27 20° NNE 19:33:27 20° NNE
Resurs 01 Rocket 4.2 19:43:00 15° NNW 19:43:00 15° NNW 19:43:46 10° NNW
Cosmos 2297 Rocket 4.2 19:44:03 10° NNW 19:45:46 19° N 19:45:46 19° N
USA 267 4.1 19:57:58 41° WSW 19:57:58 41° WSW 20:01:58 10° WSW
Cosmos 2227 Rocket 4.4 20:01:49 10° NNW 20:03:09 17° N 20:03:09 17° N
